Location: Antioch
(38.0049°N, 121.8058°W)
Time: 12:58:14
(UTC+00:00)

COSMOS 2455 - Pass Details

Date: 11 February 2026
Orbit: 900 x 908 km, 67.1° (Epoch: 17 March)

Event Time Altitude Azimuth Distance (km) Brightness Sun altitude
Exits shadow 12:12:55 20° 156° (SSE) 1,970 4.7 -33.7°
Maximum altitude 12:16:08 33° 108° (ESE) 1,485 4.3 -33.1°
Drops below altitude 10° 12:21:25 10° 47° (NE) 2,595 5.8 -32.0°
Sets 12:24:09 0° 38° (NE) 3,541 6.5 -31.5°
